Regional Weather Roundup
Issued by NWS Memphis, TN

Home | Current Version | Previous Version | Text Only | Print | Product List | Glossary On
Versions: 1 2 3 4 5 6 7 8 9 10 11 12 13 14 15 16 17 18 19 20 21 22 23 24 25 26 27 28 29 30 31 32 33 34 35 36 37 38 39 40 41 42 43 44 45 46 47 48 49 50
000
ASUS44 KMEG 290010
RWRMEG
MEMPHIS CWA HOURLY WEATHER ROUNDUP
NATIONAL WEATHER SERVICE MEMPHIS TN
700 PM CDT FRI APR 28 2017

...WEST TENNESSEE...

CITY           SKY/WX    TMP DP  RH WIND       PRES   REMARKS
MEMPHIS INTL   MOCLDY    82  73  74 S9        29.78S
6HR MIN TEMP:  76; 6HR MAX TEMP:  85;

NWS MEMPHIS      N/A     83 N/A N/A MISG        N/A
JACKSON        CLOUDY    82  73  74 S6        29.80S
6HR MIN TEMP:  72; 6HR MAX TEMP:  83;

SOMERVILLE     CLEAR     81  72  74 VRB7      29.79S
BOLIVAR        CLEAR     81  72  74 SE9       29.81S
LEXINGTON      MOCLDY    81  70  69 S5        29.84R
SAVANNAH       CLEAR     82  72  69 S9G16     29.84R
DYERSBURG      CLOUDY    82  72  71 S9        29.79R
6HR MIN TEMP:  73; 6HR MAX TEMP:  83;

UNION CITY     PTCLDY    79  72  78 S9        29.79R
HUNTINGDON     PTCLDY    77  73  88 SE12      29.80S


...EASTERN ARKANSAS...

CITY           SKY/WX    TMP DP  RH WIND       PRES   REMARKS
JONESBORO      MOCLDY    79  73  82 S8        29.74R
6HR MIN TEMP:  71; 6HR MAX TEMP:  82;

WEST MEMPHIS   CLOUDY    81  74  79 S8        29.76R
6HR MIN TEMP:  75; 6HR MAX TEMP:  83;

BATESVILLE     CLOUDY    75  70  83 E3        29.74S
6HR MIN TEMP:  64; 6HR MAX TEMP:  75;

NEWPORT        PTCLDY    78  74  87 S6          N/A
6HR MIN TEMP:  70; 6HR MAX TEMP:  81;

WALNUT RIDGE   PTCLDY    73  68  83 N5        29.74S
6HR MIN TEMP:  66; 6HR MAX TEMP:  77;

BLYTHEVILLE    CLOUDY    80  73  79 S8        29.77R
6HR MIN TEMP:  73; 6HR MAX TEMP:  82;

SEARCY         PTCLDY    80  75  84 SE5       29.73R
6HR MIN TEMP:  70; 6HR MAX TEMP:  83;

STUTTGART      CLOUDY    84  64  51 S13       29.74R
6HR MIN TEMP:  79; 6HR MAX TEMP:  86;

PINE BLUFF     CLOUDY    82  72  71 S10       29.72R
6HR MIN TEMP:  79; 6HR MAX TEMP:  86;

MONTICELLO     MOCLDY    84  73  69 S5        29.73S HX  90
6HR MIN TEMP:  82; 6HR MAX TEMP:  88;



...NORTH MISSISSIPPI...

CITY           SKY/WX    TMP DP  RH WIND       PRES   REMARKS
TUPELO         CLEAR     83  66  56 S15       29.84R
6HR MIN TEMP:  80; 6HR MAX TEMP:  87;

OXFORD         CLEAR     82  68  61 S10       29.83S
BATESVILLE     CLEAR     82  70  65 S8        29.80R
OLIVE BRANCH   MOCLDY   N/A N/A N/A S9        29.79R
TUNICA         CLEAR     81  72  74 S8        29.78R
CLARKSDALE     PTCLDY    84  75  74 S9G16     29.77R HX  92
CORINTH        PTCLDY    82  70  65 S9        29.84R
GREENWOOD      CLEAR     84  70  62 S13G23    29.80R
6HR MIN TEMP:  84; 6HR MAX TEMP:  88;

COLUMBUS       CLEAR     84  70  62 S12       29.86R
6HR MIN TEMP:  84; 6HR MAX TEMP:  88;

STARKVILLE     CLOUDY    82  68  61 S12G17    29.88R
GOLDEN TRIANGL CLEAR     82  66  57 S16       29.84R


...SOUTHEAST MISSOURI...

CITY           SKY/WX    TMP DP  RH WIND       PRES   REMARKS
KENNETT        CLOUDY    79  75  89 S5        29.75R HAZE
MALDEN         PTCLDY    79  72  78 S5        29.77S
WEST PLAINS    CLOUDY    65  63  93 S3        29.79R
6HR MIN TEMP:  61; 6HR MAX TEMP:  65; 6HR PCP:  0.02;

POPLAR BLUFF   CLOUDY    68  67  96 CALM      29.76S
6HR MIN TEMP:  65; 6HR MAX TEMP:  71; 6HR PCP: TRACE;

CAPE GIRARDEAU LGT RAIN  70  68  93 CALM      29.77S FOG
6HR MIN TEMP:  65; 6HR MAX TEMP:  74; 6HR PCP:  0.08;



...NORTHWEST ALABAMA...

CITY           SKY/WX    TMP DP  RH WIND       PRES   REMARKS
MUSCLE SHOALS  PTCLDY    83  67  58 S9G17     29.89R
6HR MIN TEMP:  80; 6HR MAX TEMP:  85;



...MIDDLE TENNESSEE...

CITY           SKY/WX    TMP DP  RH WIND       PRES   REMARKS
NASHVILLE      PTCLDY    80  67  64 S9        29.89R
6HR MIN TEMP:  74; 6HR MAX TEMP:  84; 6HR PCP:  0.01;

CLARKSVILLE    CLOUDY    79  68  69 S8        29.85R
6HR MIN TEMP:  71; 6HR MAX TEMP:  79; 6HR PCP: TRACE;

COLUMBIA       PTCLDY    81  81 100 S8        29.87S HX  91


...WESTERN KENTUCKY...

CITY           SKY/WX    TMP DP  RH WIND       PRES   REMARKS
PADUCAH        CLOUDY    77  68  73 S7        29.78S
6HR MIN TEMP:  70; 6HR MAX TEMP:  78; 6HR PCP:  0.01;

FORT CAMPBELL  PTCLDY    78  69  73 S6        29.84R
6HR MIN TEMP:  71; 6HR MAX TEMP:  79; 6HR PCP: TRACE;



...CENTRAL ARKANSAS...

CITY           SKY/WX    TMP DP  RH WIND       PRES   REMARKS
LITTLE ROCK    CLOUDY    81  74  79 SE7       29.70S
6HR MIN TEMP:  78; 6HR MAX TEMP:  83;



SKY/WX REPORTED AS FAIR MEANS FEW OR NO CLOUDS BELOW
12 THOUSAND FEET.




USA.gov is the U.S. government's official web portal to all federal, state and local government web resources and services.